Regional Weather Roundup
Issued by NWS Albany, NY

Home | Current Version | Previous Version | Text Only | Print | Product List | Glossary On
Versions: 1 2 3 4 5 6 7 8 9 10 11 12 13 14 15 16 17 18 19 20 21 22 23 24 25 26 27 28 29 30 31 32 33 34 35 36 37 38 39 40 41 42 43 44 45 46 47 48 49 50
000
ASUS41 KALY 091910
RWRALY

NEW YORK STATE HOURLY WEATHER ROUNDUP
NATIONAL WEATHER SERVICE ALBANY NY
200 PM EST SUN DEC 09 2018

NOTE: "FAIR" INDICATES FEW OR NO CLOUDS BELOW 12,000 FEET WITH NO
SIGNIFICANT WEATHER AND/OR NO OBSTRUCTIONS TO VISIBILITY.

NYZ032-033-038>043-046>054-057>066-NYZ062>081-082-084-092000-
EAST


CITY           SKY/WX    TMP DP  RH WIND       PRES   REMARKS
ALBANY         FAIR      36  18  48 S13       30.26F WCI  27
GLENS FALLS    FAIR      36  16  44 SW15G22   30.21F WCI  27
POUGHKEEPSIE   FAIR      32  14  47 SW8       30.32F WCI  25
NEWBURGH       MOSUNNY   32  19  59 W5        30.22F WCI  27
MONTGOMERY     FAIR      32  16  51 SW9       30.30F WCI  24
WHITE PLAINS   FAIR      32  15  49 W7        30.31F WCI  26
ISLIP          CLOUDY    35  19  52 SW6       30.34F WCI  30
NEW YORK CITY  CLOUDY    36  16  44 SW8       30.34F WCI  30
CENTRAL PARK   FAIR      35  17  47 MISG      30.35F
$$

NYZ005>009-017-018-044>046-055-056-092000-
CENTRAL


CITY           SKY/WX    TMP DP  RH WIND       PRES   REMARKS
FULTON         FAIR      31  17  56 SW9       30.24F WCI  23
SYRACUSE       FAIR      30  17  58 SW12      30.24F WCI  20
ROME           FAIR      31  17  56 W8        30.24F WCI  23
ELMIRA         FAIR      34  17  50 SW8       30.24F WCI  27
BINGHAMTON     FAIR      28  14  55 SW8       30.20F WCI  20
MONTICELLO     FAIR      29  15  56 SW7       30.26F WCI  22
$$

NYZ026>034-041>043-087-092000-
NORTH


CITY           SKY/WX    TMP DP  RH WIND       PRES   REMARKS
WATERTOWN      CLOUDY    30  25  81 SW14G23   30.20F WCI  19
FORT DRUM      NOT AVBL
OGDENSBURG     CLOUDY    34  26  74 SW13G23   30.15R WCI  25
MASSENA        CLOUDY    32  25  75 SW17G24   30.15F WCI  21
SARANAC LAKE   FAIR      27  18  69 SW15G23   30.07F WCI  15
PLATTSBURGH    FAIR      36  18  48 S9        30.13F WCI  29
$$

NYZ001>004-010>016-019>021-085-092000-
WEST


CITY           SKY/WX    TMP DP  RH WIND       PRES   REMARKS
NIAGARA FALLS  FAIR      29  21  72 SW18      30.24F WCI  16
BUFFALO        FAIR      30  21  69 SW17      30.24F WCI  18
DUNKIRK        FAIR      30  19  63 SW6       30.27F WCI  24
JAMESTOWN      FAIR      33  16  49 SW7       30.21F WCI  27
WELLSVILLE     FAIR      30  14  51 MISG      30.19F
ROCHESTER      FAIR      33  23  66 SW17      30.23F WCI  22
PENN YAN       FAIR      34  18  52 S12       30.22F WCI  25
$$

             KEY
       WCI = WIND CHILL INDEX
       VSB = VISIBILITY
       HX  = HEAT INDEX
$$



USA.gov is the U.S. government's official web portal to all federal, state and local government web resources and services.